Location: Unspecified
(40.7945°N, 0.0000°E)
Time: 14:08:35
(UTC+00:00)

Courier 1B - Pass Details

Date: 26 January 2021
Orbit: 962 x 1209 km, 28.3° (Epoch: 24 February)

Event Time Altitude Azimuth Distance (km) Brightness Sun altitude
Rises 22:05:35 0° 226° (SW) 3,832 - -54.8°
Reaches altitude 10° 22:09:04 10° 211° (SSW) 2,833 - -55.4°
Maximum altitude 22:13:58 21° 166° (SSE) 2,090 - -56.2°
Drops below altitude 10° 22:18:42 10° 119° (ESE) 2,731 - -56.9°
Sets 22:21:59 0° 104° (ESE) 3,657 - -57.4°
